Stations météo

Publicité
Nantes, France (7222): Température de l'air & dewpoint: 16.07.2019 17:00:00 - 22.07.2019 17:00:00 (CEST)Nantes, France (7222): Température de l'air 5cm: 16.07.2019 17:00:00 - 22.07.2019 17:00:00 (CEST)Nantes, France (7222): Température de l'air -20cm & Température de l'air -100cm: 16.07.2019 17:00:00 - 22.07.2019 17:00:00 (CEST)Nantes, France (7222): Vitesse du vent & gusts: 16.07.2019 17:00:00 - 22.07.2019 17:00:00 (CEST)Nantes, France (7222): Direction du vent: 16.07.2019 17:00:00 - 22.07.2019 17:00:00 (CEST)Nantes, France (7222): reduced air pressure: 16.07.2019 17:00:00 - 22.07.2019 17:00:00 (CEST)Nantes, France (7222): visibility: 16.07.2019 17:00:00 - 22.07.2019 17:00:00 (CEST)Nantes, France (7222): Ensoleillement: 16.07.2019 17:00:00 - 22.07.2019 17:00:00 (CEST)Nantes, France (7222): Quantités de précipitations: 16.07.2019 17:00:00 - 22.07.2019 17:00:00 (CEST)
Date & Time tt [°C] td [°C] tt 5cm [°C] tt -20cm [°C] tt -100cm [°C] ff [km/h] ff [knt] fx [km/h] fx [knt] dd ppp [hPa] vv [km] sd [min] rr [mm]
22.07.2019 17:00:00 33,5 11,4 44,5 21,5 18,3 9 5 26 14 S 1019,9 20 60 0,0
22.07.2019 16:00:00 32,7 11,8 43,8 21,3 18,3 8 4 26 14 E 1020,6 52 60 0,0
22.07.2019 15:00:00 31,4 12,2 43,1 21,0 18,3 9 5 22 12 SSE 1021,3 60 60 0,0
22.07.2019 14:00:00 29,6 13,4 42,5 20,9 18,3 12 6 26 14 S 1022,0 20 60 0,0
22.07.2019 13:00:00 28,8 13,9 40,0 20,8 18,3 8 4 20 11 ENE 1022,6 20 60 0,0
22.07.2019 12:00:00 27,4 14,4 42,0 20,8 18,3 6 4 16 9 WNW 1023,1 49 60 0,0
22.07.2019 11:00:00 25,4 15,4 37,6 20,8 18,3 7 4 17 9 N 1023,3 33 60 0,0
22.07.2019 10:00:00 23,3 15,6 30,8 20,9 18,3 5 3 15 8 NNE 1023,6 41 60 0,0
22.07.2019 09:00:00 20,1 16,3 19,1 21,0 18,3 5 3 10 5 NNE 1023,7 40 60 0,0
22.07.2019 08:00:00 16,4 15,6 9,6 21,2 18,3 0 0 6 4 N 1023,6 15 60 0,0
22.07.2019 07:00:00 13,8 13,2 7,6 21,3 18,3 2 1 4 2 NW 1023,7 10 1 0,0
22.07.2019 06:00:00 13,9 13,1 7,3 21,4 18,3 4 2 5 3 WNW 1023,6 19 0 0,0
22.07.2019 05:00:00 14,1 13,1 7,7 21,6 18,3 5 3 6 3 WNW 1023,6 28 0 0,0
22.07.2019 04:00:00 14,8 13,8 8,2 21,6 18,3 3 2 6 3 NW 1023,9 24 0 0,0
22.07.2019 03:00:00 15,4 14,1 9,0 21,7 18,3 4 2 7 4 NW 1024,0 23 0 0,0
22.07.2019 02:00:00 16,5 14,7 10,7 21,8 18,4 5 3 10 5 NNW 1024,3 27 0 0,0
22.07.2019 01:00:00 18,2 15,6 15,5 21,9 18,3 7 4 16 9 NW 1024,3 38 0 0,0
22.07.2019 00:00:00 18,8 15,5 15,7 21,9 18,3 7 4 16 9 NNW 1024,4 41 0 0,0
21.07.2019 23:00:00 19,0 15,1 15,6 21,9 18,3 8 5 22 12 NW 1024,2 46 0 0,0
21.07.2019 22:00:00 20,6 14,5 17,5 21,8 18,3 10 5 24 13 W 1023,4 55 27 0,0
21.07.2019 21:00:00 22,6 13,4 22,6 21,7 18,3 13 7 26 14 W 1023,0 50 41 0,0
21.07.2019 20:00:00 24,5 13,7 28,2 21,5 18,3 17 9 29 16 W 1022,8 56 52 0,0
21.07.2019 19:00:00 25,2 14,3 30,7 21,3 18,3 16 8 32 17 WNW 1022,5 52 60 0,0
21.07.2019 18:00:00 26,5 14,3 33,7 21,1 18,3 17 9 27 15 WNW 1022,3 34 57 0,0
21.07.2019 17:00:00 26,8 13,9 31,0 20,9 18,3 14 8 27 15 WSW 1022,5 59 33 0,0
21.07.2019 16:00:00 27,6 12,8 35,4 20,7 18,3 10 5 27 15 WSW 1022,6 42 55 0,0
21.07.2019 15:00:00 26,9 12,2 41,0 20,5 18,3 13 7 29 16 SSW 1022,7 54 60 0,0
21.07.2019 14:00:00 26,0 12,4 35,1 20,4 18,3 12 6 25 14 SW 1022,8 57 54 0,0
21.07.2019 13:00:00 24,4 14,2 30,2 20,4 18,3 5 3 17 9 WSW 1022,9 54 14 0,0
21.07.2019 12:00:00 22,2 14,8 26,7 20,3 18,3 3 2 16 8 SE 1023,2 41 0 0,0
21.07.2019 11:00:00 22,1 15,2 27,1 20,4 18,3 4 2 16 9 NW 1023,1 39 37 0,0
21.07.2019 10:00:00 20,9 16,5 27,2 20,5 18,3 4 2 11 6 WNW 1022,8 32 60 0,0
21.07.2019 09:00:00 18,0 17,4 17,7 20,6 18,3 5 3 8 4 S 1022,7 20 60 0,0
21.07.2019 08:00:00 14,8 14,5 9,7 20,7 18,3 3 1 7 4 N 1022,1 14 19 0,0
21.07.2019 07:00:00 12,9 12,4 7,3 20,9 18,4 5 3 9 5 SSE 1021,8 1,0 0 0,0
21.07.2019 06:00:00 13,3 12,8 7,6 21,0 18,4 3 2 8 4 S 1021,3 2,1 0 0,0
21.07.2019 05:00:00 13,9 13,3 7,6 21,1 18,3 6 3 7 4 S 1021,0 2,4 0 0,2
21.07.2019 04:00:00 14,4 13,8 7,9 21,3 18,3 3 2 7 4 SSW 1021,0 3,0 0 0,0
21.07.2019 03:00:00 15,3 14,7 7,9 21,3 18,3 2 1 6 3 WSW 1020,7 0,6 0 0,0
21.07.2019 02:00:00 15,3 14,5 8,3 21,4 18,3 4 2 14 8 W 1020,6 12 0 0,0
21.07.2019 01:00:00 15,5 14,2 10,1 21,5 18,4 8 4 14 7 SW 1020,4 16 0 0,0
21.07.2019 00:00:00 16,2 14,6 11,8 21,5 18,3 8 4 12 7 SW 1020,0 20 0 0,0
20.07.2019 23:00:00 17,5 14,8 15,3 21,5 18,3 9 5 19 11 WSW 1019,4 34 0 0,0
20.07.2019 22:00:00 19,0 15,1 17,4 21,5 18,3 13 7 27 15 W 1018,5 38 28 0,0
20.07.2019 21:00:00 20,9 14,5 21,8 21,5 18,3 20 11 35 19 W 1017,9 41 60 0,0
20.07.2019 20:00:00 22,7 14,3 27,5 21,4 18,3 21 12 36 19 W 1017,2 33 60 0,0
20.07.2019 19:00:00 23,2 15,8 26,7 21,3 18,3 23 12 37 20 W 1016,4 41 43 0,0
20.07.2019 18:00:00 25,1 15,4 28,8 21,2 18,3 22 12 40 22 W 1016,0 47 36 0,0
20.07.2019 17:00:00 24,5 17,2 21,5 21,2 18,3 23 12 39 21 WSW 1015,8 38 14 0,0
20.07.2019 16:00:00 23,6 16,6 26,8 21,1 18,3 22 12 41 22 W 1015,4 44 5 0,0
20.07.2019 15:00:00 25,1 16,8 31,1 21,0 18,3 25 14 49 27 WSW 1014,9 31 35 0,0
20.07.2019 14:00:00 24,1 18,5 24,6 21,0 18,4 23 12 40 22 WSW 1014,7 41 12 0,0
20.07.2019 13:00:00 21,7 18,3 23,7 21,0 18,3 20 11 45 24 W 1014,4 18 16 0,0
20.07.2019 12:00:00 23,1 16,9 24,7 21,0 18,3 21 12 41 22 SW 1013,9 43 7 0,0
20.07.2019 11:00:00 22,5 17,6 24,0 21,0 18,3 17 9 31 17 SW 1013,5 20 2 0,0
20.07.2019 10:00:00 21,2 18,0 20,4 21,1 18,3 16 8 26 14 SW 1013,4 31 0 0,0
20.07.2019 09:00:00 20,0 18,3 19,6 21,2 18,3 12 7 21 12 SSW 1012,8 34 0 0,0
20.07.2019 08:00:00 18,7 17,7 17,2 21,3 18,4 10 5 14 8 SSW 1012,5 32 0 0,0
20.07.2019 07:00:00 17,5 16,7 16,4 21,4 18,4 10 6 15 8 SSE 1012,0 20 0 0,0
20.07.2019 06:00:00 16,6 16,0 14,5 21,5 18,4 8 4 11 6 S 1011,9 18 0 0,0
20.07.2019 05:00:00 16,5 15,7 13,0 21,6 18,4 7 4 9 5 S 1011,8 19 0 0,0
20.07.2019 04:00:00 16,8 16,0 15,1 21,7 18,4 6 4 11 6 S 1011,9 26 0 0,0
20.07.2019 03:00:00 16,4 15,6 12,0 21,8 18,4 6 3 10 5 S 1012,3 19 0 0,0
20.07.2019 02:00:00 16,3 15,3 11,8 21,9 18,3 7 4 11 6 SSW 1012,6 19 0 0,0
20.07.2019 01:00:00 16,7 15,6 10,9 21,9 18,4 7 4 11 6 SW 1012,7 30 0 0,0
20.07.2019 00:00:00 17,5 15,5 12,0 21,9 18,4 5 3 10 6 SW 1012,7 36 0 0,0
19.07.2019 23:00:00 18,7 15,8 16,4 21,9 18,4 8 5 17 9 W 1013,1 52 0 0,0
19.07.2019 22:00:00 20,1 15,3 18,4 21,8 18,4 11 6 21 11 W 1012,7 58 27 0,0
19.07.2019 21:00:00 22,5 15,6 23,8 21,7 18,4 14 7 26 14 W 1012,9 58 60 0,0
19.07.2019 20:00:00 24,6 15,0 30,3 21,5 18,4 12 6 25 14 WSW 1012,9 52 60 0,0
19.07.2019 19:00:00 25,3 15,6 33,5 21,3 18,4 12 7 30 16 SW 1013,3 50 60 0,0
19.07.2019 18:00:00 25,7 14,8 35,6 21,1 18,4 17 9 32 17 SW 1014,0 55 60 0,0
19.07.2019 17:00:00 26,0 14,1 35,8 20,9 18,4 16 9 38 20 SW 1014,4 60 56 0,0
19.07.2019 16:00:00 26,0 14,8 34,4 20,7 18,3 16 8 35 19 SW 1014,8 60 50 0,0
19.07.2019 15:00:00 25,9 15,0 32,9 20,5 18,4 17 9 36 19 WSW 1015,3 42 41 0,0
19.07.2019 14:00:00 25,8 14,9 35,0 20,4 18,4 15 8 35 19 SSW 1015,7 51 53 0,0
19.07.2019 13:00:00 24,7 15,1 29,5 20,4 18,4 14 8 32 18 SW 1016,0 48 39 0,0
19.07.2019 12:00:00 23,1 14,6 29,1 20,3 18,4 16 9 29 16 SSW 1016,3 42 43 0,0
19.07.2019 11:00:00 22,0 14,6 26,9 20,3 18,4 17 9 29 15 SSW 1016,5 41 52 0,0
19.07.2019 10:00:00 20,4 14,7 26,5 20,4 18,4 12 6 20 11 SSW 1016,6 50 60 0,0
19.07.2019 09:00:00 17,8 15,8 16,0 20,5 18,4 7 4 11 6 S 1016,9 52 60 0,0
19.07.2019 08:00:00 14,7 14,2 9,5 20,7 18,4 5 3 9 5 S 1016,8 15 57 0,0
19.07.2019 07:00:00 12,6 12,1 6,8 20,8 18,4 4 2 8 4 S 1016,7 5 0 0,0
19.07.2019 06:00:00 12,7 12,1 6,6 21,0 18,4 3 2 7 4 S 1016,4 10 0 0,0
19.07.2019 05:00:00 13,3 12,7 6,6 21,1 18,4 3 1 11 6 W 1016,5 14 0 0,0
19.07.2019 04:00:00 13,6 12,8 8,0 21,2 18,4 5 3 14 7 WSW 1016,7 23 0 0,2
19.07.2019 03:00:00 14,1 13,3 7,8 21,4 18,4 9 5 13 7 WSW 1016,9 28 0 0,0
19.07.2019 02:00:00 14,8 13,8 9,4 21,4 18,4 9 5 13 7 SW 1016,9 22 0 0,0
19.07.2019 01:00:00 15,6 14,5 10,6 21,5 18,3 9 5 13 7 WSW 1017,0 32 0 0,0
19.07.2019 00:00:00 15,6 14,0 10,8 21,6 18,4 8 4 14 8 SW 1016,8 39 0 0,0
18.07.2019 23:00:00 17,1 14,2 14,8 21,6 18,4 11 6 18 10 WSW 1016,7 58 0 0,0
18.07.2019 22:00:00 18,6 14,9 16,3 21,6 18,4 10 5 22 12 WSW 1016,3 56 29 0,0
18.07.2019 21:00:00 20,4 15,6 21,6 21,5 18,3 14 8 26 14 WSW 1015,8 52 43 0,0
18.07.2019 20:00:00 20,5 16,1 21,7 21,5 18,4 18 10 33 18 W 1015,6 60 3 0,0
18.07.2019 19:00:00 21,1 17,1 20,5 21,5 18,4 16 9 30 16 WSW 1015,5 45 19 0,0
18.07.2019 18:00:00 20,1 18,6 19,7 21,4 18,3 16 9 32 17 WSW 1015,7 9 3 0,2
18.07.2019 17:00:00 21,2 17,6 22,5 21,4 18,3 21 12 33 18 SSW 1015,6 20 12 0,0
18.07.2019 16:00:00 19,7 18,2 19,7 21,4 18,3 19 10 38 20 SW 1016,1 7 1 0,2
18.07.2019 15:00:00 20,9 17,1 23,0 21,4 18,4 20 11 35 19 SW 1016,1 15 3 0,0
18.07.2019 14:00:00 20,3 17,7 19,8 21,4 18,3 22 12 34 18 SW 1016,2 4,8 0 0,0
18.07.2019 13:00:00 19,2 16,2 19,8 21,4 18,3 17 9 32 18 WSW 1016,5 6 0 0,0
18.07.2019 12:00:00 21,3 15,4 23,1 21,5 18,3 20 11 31 17 WSW 1016,1 42 0 0,0
18.07.2019 11:00:00 20,9 14,8 23,8 21,5 18,3 18 10 29 16 WSW 1016,0 28 15 0,0
18.07.2019 10:00:00 20,5 15,1 21,6 21,6 18,3 15 8 24 13 SW 1016,1 31 44 0,0
18.07.2019 09:00:00 18,1 14,8 17,4 21,8 18,3 9 5 13 7 S 1016,1 30 43 0,0
18.07.2019 08:00:00 15,5 13,9 10,7 21,9 18,3 9 5 13 7 S 1016,0 20 26 0,0
18.07.2019 07:00:00 13,8 12,2 9,3 22,0 18,3 4 2 8 4 SSW 1015,6 17 6 0,0
18.07.2019 06:00:00 14,7 12,4 10,4 22,2 18,3 5 3 14 8 SSW 1015,7 32 0 0,0
18.07.2019 05:00:00 15,6 12,7 12,7 22,3 18,3 4 2 15 8 W 1015,9 40 0 0,0
18.07.2019 04:00:00 16,0 13,7 10,4 22,4 18,3 10 5 19 10 NW 1015,9 19 0 0,0
18.07.2019 03:00:00 15,1 13,5 11,4 22,6 18,3 4 2 14 7 WNW 1015,9 23 0 0,0
18.07.2019 02:00:00 15,0 13,7 9,2 22,7 18,3 5 3 10 5 W 1016,0 19 0 0,0
18.07.2019 01:00:00 15,0 13,4 8,8 22,7 18,3 4 2 7 4 WSW 1015,9 20 0 0,0
18.07.2019 00:00:00 16,1 13,6 11,0 22,9 18,3 4 2 16 9 W 1015,5 26 0 0,0
17.07.2019 23:00:00 17,5 14,2 15,4 22,8 18,3 13 7 25 13 W 1015,5 31 0 0,0
17.07.2019 22:00:00 18,7 14,4 17,2 22,8 18,3 14 8 30 16 W 1015,0 40 28 0,0
17.07.2019 21:00:00 20,5 13,5 21,0 22,7 18,3 18 10 30 16 W 1014,7 45 60 0,0
17.07.2019 20:00:00 22,5 13,0 25,8 22,7 18,3 22 12 34 18 W 1014,9 57 52 0,0
17.07.2019 19:00:00 23,9 12,8 28,3 22,5 18,3 24 13 38 20 W 1014,7 50 52 0,0
17.07.2019 18:00:00 25,7 8,7 32,8 22,3 18,3 22 12 35 19 W 1014,7 51 51 0,0
17.07.2019 17:00:00 26,1 9,4 33,5 22,1 18,3 21 12 36 19 W 1014,7 34 53 0,0
17.07.2019 16:00:00 26,9 10,1 35,5 21,9 18,3 18 10 39 21 W 1014,7 28 54 0,0
17.07.2019 15:00:00 27,5 9,3 38,9 21,7 18,3 19 11 35 19 W 1015,0 55 60 0,0
17.07.2019 14:00:00 27,8 9,6 39,8 21,6 18,3 10 5 26 14 WNW 1015,0 43 60 0,0
17.07.2019 13:00:00 26,6 10,3 38,6 21,5 18,3 11 6 26 14 W 1015,3 48 60 0,0
17.07.2019 12:00:00 25,8 11,5 38,3 21,5 18,3 8 4 19 10 NW 1015,7 47 60 0,0
17.07.2019 11:00:00 24,4 10,3 34,9 21,6 18,3 4 2 14 8 WNW 1015,7 59 60 0,0
17.07.2019 10:00:00 21,9 11,3 30,1 21,8 18,3 7 4 14 8 NW 1015,9 43 60 0,0
17.07.2019 09:00:00 19,5 10,5 20,0 21,9 18,3 5 3 10 5 NNW 1016,1 32 60 0,0
17.07.2019 08:00:00 17,2 9,9 10,4 22,1 18,3 5 3 10 6 NNW 1016,0 49 56 0,0
17.07.2019 07:00:00 14,5 8,4 8,1 22,3 18,3 3 2 8 4 N 1015,8 36 3 0,0
17.07.2019 06:00:00 14,8 7,8 7,7 22,4 18,3 5 3 9 5 N 1015,8 60 0 0,0
17.07.2019 05:00:00 14,8 7,8 8,1 22,6 18,3 6 3 11 6 N 1016,0 60 0 0,0
17.07.2019 04:00:00 15,2 8,9 8,5 22,7 18,3 6 3 10 6 N 1016,2 41 0 0,0
17.07.2019 03:00:00 15,5 11,5 9,0 22,8 18,2 6 3 9 5 NNW 1016,7 56 0 0,0
17.07.2019 02:00:00 16,8 12,1 10,3 22,9 18,3 6 3 9 5 NW 1017,0 57 0 0,0
17.07.2019 01:00:00 17,6 12,5 12,0 23,0 18,3 8 4 13 7 NW 1017,1 60 0 0,0
17.07.2019 00:00:00 19,7 12,7 16,3 23,0 18,2 8 5 22 12 NNW 1017,1 60 0 0,0
16.07.2019 23:00:00 21,0 11,3 18,8 23,0 18,3 13 7 28 15 NW 1017,1 60 0 0,0
16.07.2019 22:00:00 22,6 11,3 20,6 22,9 18,2 14 8 29 15 WNW 1016,5 60 29 0,0
16.07.2019 21:00:00 25,0 11,2 25,2 22,8 18,2 17 9 38 20 WNW 1016,4 55 60 0,0
16.07.2019 20:00:00 26,8 10,9 30,3 22,7 18,3 20 11 37 20 WNW 1016,0 60 60 0,0
16.07.2019 19:00:00 28,9 9,6 38,8 22,4 18,2 10 5 26 14 NNW 1016,0 51 60 0,0
16.07.2019 18:00:00 29,4 9,0 37,0 22,2 18,2 11 6 24 13 WNW 1016,2 20 55 0,0
16.07.2019 17:00:00 29,5 8,5 42,7 22,0 18,3 11 6 22 12 NNW 1016,6 20 60 0,0

tt = Température de l'air
td = dewpoint
tt 5cm = Température de l'air 5cm
tt -20cm = Température de l'air -20cm
tt -100cm = Température de l'air -100cm
ff = Vitesse du vent
fx = gusts
dd = Direction du vent
ppp = reduced air pressure
vv = visibility
sd = Ensoleillement
rr = Quantités de précipitations

stations d'obs. à proximité